Leesburg, VA

7:34 AM EDT on September 18, 2019 (GMT -0400)
Leesburg Executive

Weather History for KJYO - April, 2019

Change the Weather History Date:

Saturday, April 20, 2019

  Actual Average (KIAD) Record (KIAD)
Temperature  
Mean Temperature 66 °F -  
Max Temperature 73 °F 69 °F 88 °F (1976)
Min Temperature 59 °F 42 °F 28 °F (1974)
Cooling Degree Days 1    
Growing Degree Days 16 (Base 50)    
Moisture  
Dew Point 53 °F    
Average Humidity 68    
Maximum Humidity 100    
Minimum Humidity 38    
Precipitation  
Precipitation 0.00 in - - ()
Sea Level Pressure  
Sea Level Pressure 29.65 in    
Wind  
Wind Speed 12 mph (South)    
Max Wind Speed 22 mph    
Max Gust Speed 31 mph    
Visibility 10 miles    
Events      
Averages and records for this station are not official NWS values.
T = Trace of Precipitation, MM = Missing Value Source: NWS Daily Summary

Daily Weather History Graph

Daily Weather History Graph

Search for Another Location

Airport or City:

Astronomy

Apr. 20, 2019 Rise Set
Actual Time 6:26 AM EDT 7:52 PM EDT
Civil Twilight 5:58 AM EDT 8:20 PM EDT
Nautical Twilight 5:25 AM EDT 8:53 PM EDT
Astronomical Twilight 4:49 AM EDT 9:29 PM EDT
Moon 9:24 PM EDT (4/20) 7:28 AM EDT (4/20)
Length of Visible Light 14h 21m
Length of Day
13h 25m
Full, 98% of the Moon is Illuminated
Apr 20
Full
Apr 26
Last Quarter
May 4
New
May 11
First Quarter
May 18
Full

Hourly Weather History & Observations

Time (EDT) Temp. Dew Point Humidity Pressure Visibility Wind Dir Wind Speed Gust Speed Precip Events Conditions
12:15 AM 64.4 °F 64.4 °F 100% 29.58 in 10.0 mi SSE 6.9 mph - N/A   Overcast
12:35 AM 64.4 °F 64.4 °F 100% 29.59 in 10.0 mi SSE 11.5 mph 17.3 mph N/A   Overcast
12:55 AM 64.4 °F 64.4 °F 100% 29.59 in 10.0 mi South 10.4 mph 19.6 mph N/A   Overcast
1:15 AM 64.4 °F 62.6 °F 94% 29.59 in 10.0 mi SSE 13.8 mph 19.6 mph N/A   Overcast
1:35 AM 64.4 °F 62.6 °F 94% 29.59 in 4.0 mi South 10.4 mph 17.3 mph N/A   Overcast
1:55 AM 62.6 °F 62.6 °F 100% 29.59 in 7.0 mi SSE 11.5 mph - N/A   Overcast
2:15 AM 62.6 °F 62.6 °F 100% 29.59 in 10.0 mi SSE 9.2 mph 19.6 mph N/A   Overcast
2:35 AM 62.6 °F 62.6 °F 100% 29.59 in 10.0 mi SSE 12.7 mph - N/A   Overcast
2:55 AM 62.6 °F 62.6 °F 100% 29.59 in 10.0 mi SSE 12.7 mph 20.7 mph N/A   Overcast
3:15 AM 62.6 °F 62.6 °F 100% 29.58 in 10.0 mi South 9.2 mph - N/A   Overcast
3:35 AM 62.6 °F 62.6 °F 100% 29.57 in 10.0 mi SE 9.2 mph - N/A   Overcast
3:55 AM 62.6 °F 62.6 °F 100% 29.57 in 10.0 mi SSE 8.1 mph - N/A   Overcast
4:15 AM 62.6 °F 62.6 °F 100% 29.57 in 10.0 mi SSE 8.1 mph - N/A   Overcast
4:35 AM 62.6 °F 62.6 °F 100% 29.56 in 10.0 mi SSE 6.9 mph - N/A   Overcast
4:55 AM 62.6 °F 62.6 °F 100% 29.56 in 10.0 mi SSE 9.2 mph - N/A   Overcast
5:15 AM 62.6 °F 62.6 °F 100% 29.56 in 10.0 mi SE 9.2 mph - N/A   Overcast
5:35 AM 62.6 °F 62.6 °F 100% 29.55 in 10.0 mi SE 8.1 mph - N/A   Overcast
5:55 AM 62.6 °F 62.6 °F 100% 29.56 in 10.0 mi SSE 9.2 mph - N/A   Overcast
6:15 AM 62.6 °F 62.6 °F 100% 29.56 in 10.0 mi SE 8.1 mph 16.1 mph N/A   Overcast
6:35 AM 62.6 °F 62.6 °F 100% 29.56 in 10.0 mi SE 9.2 mph - N/A   Overcast
6:55 AM 62.6 °F 62.6 °F 100% 29.56 in 10.0 mi SSE 9.2 mph - N/A   Mostly Cloudy
7:15 AM 62.6 °F 62.6 °F 100% 29.56 in 10.0 mi SSE 9.2 mph - N/A   Overcast
7:35 AM 62.6 °F 62.6 °F 100% 29.57 in 10.0 mi SE 10.4 mph 18.4 mph N/A   Overcast
7:55 AM 62.6 °F 62.6 °F 100% 29.57 in 10.0 mi SSE 11.5 mph 16.1 mph N/A   Overcast
8:15 AM 64.4 °F 62.6 °F 94% 29.59 in 10.0 mi SSE 10.4 mph - N/A   Overcast
8:35 AM 64.4 °F 62.6 °F 94% 29.59 in 10.0 mi South 16.1 mph 20.7 mph N/A   Overcast
8:55 AM 64.4 °F 60.8 °F 88% 29.59 in 10.0 mi South 11.5 mph 18.4 mph N/A   Overcast
9:10 AM 66.2 °F 60.8 °F 83% 29.58 in 10.0 mi South 11.5 mph 18.4 mph N/A   Overcast
9:35 AM 66.2 °F 59.0 °F 78% 29.59 in 10.0 mi South 15.0 mph 23.0 mph N/A   Mostly Cloudy
9:55 AM 68.0 °F 53.6 °F 60% 29.60 in 10.0 mi South 16.1 mph 28.8 mph N/A   Scattered Clouds
10:15 AM 68.0 °F 51.8 °F 56% 29.61 in 10.0 mi South 18.4 mph 24.2 mph N/A   Clear
10:35 AM 68.0 °F 50.0 °F 52% 29.62 in 10.0 mi South 17.3 mph 26.5 mph N/A   Clear
10:55 AM 69.8 °F 51.8 °F 53% 29.63 in 10.0 mi South 19.6 mph 26.5 mph N/A   Clear
11:15 AM 69.8 °F 53.6 °F 56% 29.63 in 10.0 mi South 15.0 mph 23.0 mph N/A   Scattered Clouds
11:35 AM 69.8 °F 53.6 °F 56% 29.64 in 10.0 mi SSW 12.7 mph 21.9 mph N/A   Scattered Clouds
11:55 AM 69.8 °F 51.8 °F 53% 29.64 in 10.0 mi SSW 16.1 mph 24.2 mph N/A   Clear
12:15 PM 69.8 °F 50.0 °F 49% 29.64 in 10.0 mi South 21.9 mph 31.1 mph N/A   Clear
12:35 PM 71.6 °F 50.0 °F 46% 29.64 in 10.0 mi South 20.7 mph 29.9 mph N/A   Clear
12:55 PM 69.8 °F 50.0 °F 49% 29.64 in 10.0 mi South 16.1 mph 26.5 mph N/A   Clear
1:15 PM 71.6 °F 50.0 °F 46% 29.64 in 10.0 mi South 19.6 mph 29.9 mph N/A   Clear
1:35 PM 71.6 °F 50.0 °F 46% 29.65 in 10.0 mi South 18.4 mph 31.1 mph N/A   Clear
1:55 PM 71.6 °F 50.0 °F 46% 29.64 in 10.0 mi SSW 18.4 mph 27.6 mph N/A   Clear
2:15 PM 71.6 °F 50.0 °F 46% 29.65 in 10.0 mi SSW 21.9 mph 27.6 mph N/A   Clear
2:35 PM 71.6 °F 46.4 °F 41% 29.64 in 10.0 mi SSW 15.0 mph 27.6 mph N/A   Clear
2:55 PM 71.6 °F 46.4 °F 41% 29.64 in 10.0 mi SW 18.4 mph 24.2 mph N/A   Scattered Clouds
3:15 PM 73.4 °F 48.2 °F 41% 29.63 in 10.0 mi South 16.1 mph 24.2 mph N/A   Scattered Clouds
3:35 PM 73.4 °F 46.4 °F 38% 29.63 in 10.0 mi South 15.0 mph 27.6 mph N/A   Mostly Cloudy
3:55 PM 71.6 °F 46.4 °F 41% 29.64 in 10.0 mi South 17.3 mph 27.6 mph N/A   Mostly Cloudy
4:15 PM 69.8 °F 46.4 °F 43% 29.64 in 10.0 mi South 15.0 mph 25.3 mph N/A   Scattered Clouds
4:35 PM 71.6 °F 46.4 °F 41% 29.66 in 10.0 mi SSW 18.4 mph 26.5 mph N/A   Mostly Cloudy
4:55 PM 71.6 °F 44.6 °F 38% 29.67 in 10.0 mi SSW 18.4 mph 29.9 mph N/A   Overcast
5:15 PM 69.8 °F 44.6 °F 40% 29.68 in 10.0 mi SSW 15.0 mph 25.3 mph N/A   Scattered Clouds
5:35 PM 69.8 °F 44.6 °F 40% 29.69 in 10.0 mi South 17.3 mph 25.3 mph N/A   Mostly Cloudy
5:55 PM 68.0 °F 44.6 °F 43% 29.69 in 10.0 mi SSW 12.7 mph 20.7 mph N/A   Mostly Cloudy
6:15 PM 69.8 °F 44.6 °F 40% 29.70 in 10.0 mi South 15.0 mph 20.7 mph N/A   Mostly Cloudy
6:55 PM 68.0 °F 44.6 °F 43% 29.70 in 10.0 mi South 17.3 mph 23.0 mph N/A   Scattered Clouds
7:15 PM 68.0 °F 44.6 °F 43% 29.71 in 10.0 mi South 17.3 mph 25.3 mph N/A   Mostly Cloudy
7:35 PM 64.4 °F 44.6 °F 49% 29.74 in 10.0 mi SW 13.8 mph 24.2 mph N/A   Overcast
7:55 PM 64.4 °F 44.6 °F 49% 29.76 in 10.0 mi SW 20.7 mph 28.8 mph N/A   Overcast
8:15 PM 62.6 °F 42.8 °F 48% 29.77 in 10.0 mi SW 10.4 mph 20.7 mph N/A   Overcast
8:35 PM 62.6 °F 44.6 °F 52% 29.77 in 10.0 mi SW 9.2 mph - N/A   Overcast
8:55 PM 60.8 °F 42.8 °F 52% 29.78 in 10.0 mi SW 9.2 mph - N/A   Scattered Clouds
9:15 PM 60.8 °F 42.8 °F 52% 29.79 in 10.0 mi SSW 9.2 mph 18.4 mph N/A   Clear
9:35 PM 59.0 °F 42.8 °F 55% 29.80 in 10.0 mi SSW 6.9 mph - N/A   Clear
9:55 PM 59.0 °F 42.8 °F 55% 29.80 in 10.0 mi SSW 9.2 mph - N/A   Scattered Clouds
10:15 PM 59.0 °F 42.8 °F 55% 29.81 in 10.0 mi SSW 6.9 mph - N/A   Overcast
10:35 PM 59.0 °F 42.8 °F 55% 29.81 in 10.0 mi South 6.9 mph - N/A   Overcast
10:55 PM 59.0 °F 42.8 °F 55% 29.81 in 10.0 mi SSW 8.1 mph - N/A   Overcast
11:10 PM 59.0 °F 42.8 °F 55% 29.81 in 10.0 mi SSW 5.8 mph - N/A   Overcast
11:35 PM 59.0 °F 42.8 °F 55% 29.83 in 10.0 mi SSW 6.9 mph - N/A   Overcast
11:55 PM 59.0 °F 42.8 °F 55% 29.83 in 10.0 mi SSW 5.8 mph - N/A   Overcast